Погода в Саратовской

Россия / Краснодарский край     44°42′25″N   39°13′48″E
темп.,
°C
ветер,
м/с
пор.,
м/с
влажн.,
%
обл.,
%
осадки,
мм/ч
давл.,
гПа
погр.,
м
12 мая, ср
ср1200:00+10ююз61462100 0.1 10151088
03:00+10ю5126114 0.1 1015716
06:00+8вюв367886 0.0 1016164
09:00+11вюв356723 0.0 1016295
12:00+18в344333 0.0 10141395
15:00+20всв545096 0.0 10131059
18:00+17всв3775100 0.0 1013294
21:00+12св11925 0.0 101311
13 мая, чт
чт1300:00+10зюз11940 0.0 101211
03:00+9з11960 0.0 101214
06:00+10юз11950 0.0 101315
09:00+18св11675 0.0 1012316
12:00+23св3350100 0.0 1012797
15:00+25всв465221 0.0 1011989
18:00+22всв4107199 0.0 1010461
21:00+16в2594100 0.0 101080
14 мая, пт
пт1400:00+15ю12935 0.0 101011
03:00+14ююв22850 0.0 101011
06:00+15ююв22700 0.0 101016
09:00+24в22485 0.0 1010201
12:00+29ссв33425 0.0 1010547
15:00+29св33465 0.0 1010885
18:00+27ссв23745 0.0 100984
21:00+21зсз118961 0.0 101011
15 мая, сб
сб1500:00+17з34920 0.0 101064
03:00+15з49860 0.0 1012167
06:00+15юз12847 0.0 101334
09:00+21зсз236453 0.0 1014462
12:00+25ссз445799 0.0 1014815
15:00+25ссв33565 0.0 1013951
18:00+24св24730 0.1 1012267
21:00+18св22925 0.6 101228
16 мая, вс
вс1600:00+17всв01955 0.0 101111
03:00+16ссв119748 0.0 101011
06:00+17в1297100 0.0 100987
09:00+22всв2581100 0.0 1008475
12:00+27всв5767100 0.0 10061072
15:00+28всв5764100 0.0 10041341
18:00+26всв4107591 0.0 1002598
21:00+21в378540 0.0 1002132